Change the Weather History Date:

Friday, September 27, 2013

  Actual Average (YSSY) Record (YSSY)
Temperature  
Mean Temperature 58 °F -  
Max Temperature 77 °F 76 °F 84 °F (2004)
Min Temperature 39 °F 51 °F 51 °F (2011)
Degree Days  
Heating Degree Days 7    
Growing Degree Days 8 (Base 50)    
Moisture  
Dew Point 34 °F    
Average Humidity 46    
Maximum Humidity 87    
Minimum Humidity 12    
Precipitation  
Precipitation 0.00 in 0.08 in - ()
Sea Level Pressure  
Sea Level Pressure 30.04 in    
Wind  
Wind Speed 4 mph ()    
Max Wind Speed 14 mph    
Max Gust Speed -    
Visibility 6.2 miles    
Events      
Averages and records for this station are not official NWS values.
T = Trace of Precipitation, MM = Missing Value Source: Averaged Metar Reports

Daily Weather History Graph

Daily Weather History Graph

Search for Another Location

Airport or City:

Trip Planner

Search our weather history database for the weather conditions in past years. The results will help you decide how hot, cold, wet, or windy it might be!

Date:

Astronomy

Sep. 27, 2013 Rise Set
Actual Time 5:39 AM AEST 5:56 PM AEST
Civil Twilight 5:15 AM AEST 6:21 PM AEST
Nautical Twilight 4:46 AM AEST 6:50 PM AEST
Astronomical Twilight 4:16 AM AEST 7:20 PM AEST
Moon 12:18 AM AEST (9/27) 10:50 AM AEST (9/27)
Length of Visible Light 13h 06m
Length of Day
12h 16m
Waning Gibbous, 51% of the Moon is Illuminated
Sep 27
Waning Gibbous
Sep 27
Last Quarter
Oct 5
New
Oct 12
First Quarter
Oct 19
Full

Hourly Weather History & Observations

Time (AEST) Temp. Dew Point Humidity Pressure Visibility Wind Dir Wind Speed Gust Speed Precip Events Conditions
12:00 AM 55.4 °F 30.2 °F 38% 30.01 in 6.2 mi West 5.8 mph - N/A   Unknown
12:30 AM 53.6 °F 32.0 °F 44% 30.01 in 6.2 mi West 9.2 mph - N/A   Unknown
1:00 AM 55.4 °F 30.2 °F 38% 30.01 in 6.2 mi NW 6.9 mph - N/A   Unknown
1:30 AM 53.6 °F 32.0 °F 44% 30.04 in 6.2 mi NNW 9.2 mph - N/A   Unknown
2:00 AM 50.0 °F 32.0 °F 50% 30.04 in 6.2 mi Calm Calm - N/A   Unknown
2:30 AM 48.2 °F 35.6 °F 62% 30.04 in 6.2 mi ESE 5.8 mph - N/A   Unknown
3:00 AM 48.2 °F 33.8 °F 58% 30.04 in 6.2 mi Calm Calm - N/A   Unknown
3:30 AM 46.4 °F 35.6 °F 66% 30.04 in 6.2 mi Calm Calm - N/A   Unknown
4:00 AM 48.2 °F 33.8 °F 58% 30.06 in 6.2 mi Calm Calm - N/A   Unknown
4:30 AM 42.8 °F 33.8 °F 70% 30.06 in 6.2 mi Calm Calm - N/A   Unknown
5:00 AM 41.0 °F 35.6 °F 81% 30.09 in 6.2 mi Calm Calm - N/A   Unknown
5:30 AM 39.2 °F 33.8 °F 81% 30.09 in 6.2 mi Calm Calm - N/A   Unknown
6:00 AM 42.8 °F 35.6 °F 76% 30.09 in 6.2 mi Calm Calm - N/A   Unknown
6:30 AM 46.4 °F 37.4 °F 71% 30.12 in 6.2 mi ESE 1.2 mph - N/A   Unknown
7:00 AM 48.2 °F 37.4 °F 66% 30.12 in 6.2 mi Calm Calm - N/A   Unknown
7:30 AM 51.8 °F 39.2 °F 62% 30.12 in 6.2 mi North 4.6 mph - N/A   Unknown
8:00 AM 55.4 °F 39.2 °F 54% 30.12 in 6.2 mi NE 6.9 mph - N/A   Unknown
8:30 AM 59.0 °F 35.6 °F 42% 30.12 in 6.2 mi NE 4.6 mph - N/A   Unknown
9:00 AM 60.8 °F 33.8 °F 36% 30.12 in 6.2 mi Calm Calm - N/A   Unknown
9:30 AM 62.6 °F 33.8 °F 34% 30.12 in 6.2 mi NNW 2.3 mph - N/A   Unknown
10:00 AM 64.4 °F 33.8 °F 32% 30.12 in 6.2 mi North 4.6 mph - N/A   Unknown
10:30 AM 68.0 °F 32.0 °F 26% 30.09 in 6.2 mi NNE 2.3 mph - N/A   Unknown
11:00 AM 69.8 °F 30.2 °F 23% 30.09 in 6.2 mi ENE 2.3 mph - N/A   Unknown
11:30 AM 69.8 °F 26.6 °F 20% 30.06 in 6.2 mi NNE 3.5 mph - N/A   Unknown
12:00 PM 71.6 °F 21.2 °F 15% 30.06 in 6.2 mi NNE 2.3 mph - N/A   Unknown
12:30 PM 73.4 °F 23.0 °F 15% 30.04 in 6.2 mi East 3.5 mph - N/A   Unknown
1:00 PM 73.4 °F 23.0 °F 15% 30.04 in 6.2 mi ENE 6.9 mph - N/A   Unknown
1:30 PM 73.4 °F 21.2 °F 14% 30.01 in 6.2 mi East 4.6 mph - N/A   Unknown
2:00 PM 75.2 °F 21.2 °F 13% 30.01 in 6.2 mi NE 8.1 mph - N/A   Unknown
2:30 PM 75.2 °F 24.8 °F 15% 29.98 in 6.2 mi ESE 4.6 mph - N/A   Unknown
3:00 PM 75.2 °F 21.2 °F 13% 29.98 in 6.2 mi East 6.9 mph - N/A   Unknown
3:30 PM 77.0 °F 19.4 °F 12% 29.98 in 6.2 mi East 6.9 mph - N/A   Unknown
4:00 PM 75.2 °F 19.4 °F 12% 29.95 in 6.2 mi ESE 6.9 mph - N/A   Unknown
4:30 PM 73.4 °F 39.2 °F 29% 29.95 in 6.2 mi East 13.8 mph - N/A   Unknown
5:00 PM 69.8 °F 39.2 °F 33% 29.98 in 6.2 mi East 11.5 mph - N/A   Unknown
5:30 PM 68.0 °F 39.2 °F 35% 29.98 in 6.2 mi East 10.4 mph - N/A   Unknown
6:00 PM 64.4 °F 41.0 °F 42% 29.98 in 6.2 mi ENE 10.4 mph - N/A   Unknown
6:30 PM 62.6 °F 42.8 °F 48% 29.98 in 6.2 mi ENE 6.9 mph - N/A   Unknown
7:00 PM 60.8 °F 42.8 °F 52% 30.01 in 6.2 mi ENE 8.1 mph - N/A   Unknown
7:30 PM 59.0 °F 42.8 °F 55% 30.01 in 6.2 mi NE 1.2 mph - N/A   Unknown
8:00 PM 59.0 °F 42.8 °F 55% 30.01 in 6.2 mi NE 4.6 mph - N/A   Unknown
8:30 PM 59.0 °F 42.8 °F 55% 30.01 in 6.2 mi NE 3.5 mph - N/A   Unknown
9:00 PM 55.4 °F 42.8 °F 63% 30.01 in 6.2 mi NE 4.6 mph - N/A   Unknown
9:30 PM 51.8 °F 41.0 °F 67% 30.01 in 6.2 mi ENE 2.3 mph - N/A   Unknown
10:00 PM 51.8 °F 42.8 °F 71% 29.98 in 6.2 mi Calm Calm - N/A   Unknown
10:30 PM 50.0 °F 42.8 °F 76% 29.98 in 6.2 mi NW 2.3 mph - N/A   Unknown
11:00 PM 50.0 °F 44.6 °F 82% 29.98 in 6.2 mi Calm Calm - N/A   Unknown
11:30 PM 48.2 °F 44.6 °F 87% 29.98 in 6.2 mi Calm Calm - N/A   Unknown